Stevensville, MD

4:28 PM EDT on June 25, 2017 (GMT -0400)
Stevensville

Weather History for KW29 - September, 2013

Change the Weather History Date:

Tuesday, September 3, 2013

  Actual Average (KESN) Record (KESN)
Temperature  
Mean Temperature 78 °F -  
Max Temperature 84 °F 84 °F 95 °F (1961)
Min Temperature 71 °F 61 °F 41 °F (1967)
Cooling Degree Days 12    
Growing Degree Days 28 (Base 50)    
Moisture  
Dew Point 62 °F    
Average Humidity 59    
Maximum Humidity 94    
Minimum Humidity 37    
Precipitation  
Precipitation 0.00 in - - ()
Sea Level Pressure  
Sea Level Pressure 29.82 in    
Wind  
Wind Speed 7 mph (NW)    
Max Wind Speed 15 mph    
Max Gust Speed 22 mph    
Visibility 10 miles    
Events      
Averages and records for this station are not official NWS values.
T = Trace of Precipitation, MM = Missing Value Source: NWS Daily Summary

Daily Weather History Graph

Daily Weather History Graph

Search for Another Location

Airport or City:

Trip Planner

Search our weather history database for the weather conditions in past years. The results will help you decide how hot, cold, wet, or windy it might be!

Date:

Astronomy

Sep. 03, 2013 Rise Set
Actual Time 6:36 AM EDT 7:32 PM EDT
Civil Twilight 6:08 AM EDT 7:59 PM EDT
Nautical Twilight 5:36 AM EDT 8:31 PM EDT
Astronomical Twilight 5:02 AM EDT 9:05 PM EDT
Moon 4:48 AM EDT (9/3) 6:18 PM EDT (9/3)
Length of Visible Light 13h 50m
Length of Day
12h 56m
Waning Crescent, 3% of the Moon is Illuminated
Sep 3
Waning Crescent
Sep 5
New
Sep 12
First Quarter
Sep 19
Full
Sep 26
Last Quarter

Hourly Weather History & Observations

Time (EDT) Temp. Heat Index Dew Point Humidity Pressure Visibility Wind Dir Wind Speed Gust Speed Precip Events Conditions
12:04 AM 78.8 °F - 73.4 °F 83% 29.76 in 10.0 mi SSW 4.6 mph - N/A   Clear
12:24 AM 78.8 °F - 73.4 °F 83% 29.76 in 10.0 mi South 5.8 mph - N/A   Clear
12:44 AM 78.8 °F - 73.4 °F 83% 29.75 in 10.0 mi South 4.6 mph - N/A   Clear
1:04 AM 78.8 °F - 71.6 °F 78% 29.74 in 10.0 mi SSW 4.6 mph - N/A   Clear
1:24 AM 78.8 °F - 71.6 °F 78% 29.74 in 10.0 mi SSW 6.9 mph - N/A   Clear
1:44 AM 78.8 °F - 71.6 °F 78% 29.73 in 10.0 mi SSW 5.8 mph - N/A   Clear
2:04 AM 78.8 °F - 71.6 °F 78% 29.72 in 10.0 mi SW 6.9 mph - N/A   Clear
2:24 AM 78.8 °F - 71.6 °F 78% 29.74 in 10.0 mi WSW 4.6 mph - N/A   Clear
2:44 AM 78.8 °F - 71.6 °F 78% 29.73 in 10.0 mi WSW 4.6 mph - N/A   Clear
3:04 AM 78.8 °F - 71.6 °F 78% 29.74 in 10.0 mi West 6.9 mph - N/A   Clear
3:24 AM 78.8 °F - 71.6 °F 78% 29.74 in 10.0 mi WSW 6.9 mph - N/A   Clear
3:44 AM 77.0 °F - 71.6 °F 83% 29.73 in 10.0 mi WSW 4.6 mph - N/A   Clear
4:04 AM 77.0 °F - 71.6 °F 83% 29.74 in 10.0 mi West 4.6 mph - N/A   Clear
4:24 AM 77.0 °F - 71.6 °F 83% 29.73 in 10.0 mi Calm Calm - N/A   Clear
4:44 AM 77.0 °F - 71.6 °F 83% 29.74 in 10.0 mi Calm Calm - N/A   Clear
5:05 AM 73.4 °F - 71.6 °F 94% 29.74 in 10.0 mi West 3.5 mph - N/A   Clear
5:25 AM 77.0 °F - 71.6 °F 83% 29.76 in 10.0 mi WNW 6.9 mph - N/A   Clear
5:45 AM 77.0 °F - 71.6 °F 83% 29.76 in 10.0 mi WNW 6.9 mph - N/A   Clear
6:05 AM 77.0 °F - 71.6 °F 83% 29.76 in 10.0 mi WNW 8.1 mph - N/A   Clear
6:25 AM 75.2 °F - 71.6 °F 89% 29.77 in 10.0 mi NW 8.1 mph - N/A   Clear
6:45 AM 75.2 °F - 71.6 °F 89% 29.78 in 10.0 mi NW 5.8 mph - N/A   Clear
7:05 AM 77.0 °F - 69.8 °F 78% 29.79 in 10.0 mi NW 6.9 mph - N/A   Clear
7:25 AM 77.0 °F - 68.0 °F 74% 29.79 in 10.0 mi North 8.1 mph - N/A   Clear
7:45 AM 77.0 °F - 66.2 °F 69% 29.80 in 10.0 mi NNW 11.5 mph 17.3 mph N/A   Clear
8:05 AM 77.0 °F - 66.2 °F 69% 29.81 in 10.0 mi NNW 9.2 mph - N/A   Clear
8:25 AM 77.0 °F - 66.2 °F 69% 29.82 in 10.0 mi NNW 8.1 mph - N/A   Clear
8:45 AM 77.0 °F - 66.2 °F 69% 29.82 in 10.0 mi NNW 9.2 mph - N/A   Clear
9:05 AM 77.0 °F - 64.4 °F 65% 29.82 in 10.0 mi North 8.1 mph - N/A   Clear
9:25 AM 77.0 °F - 64.4 °F 65% 29.83 in 10.0 mi NNW 8.1 mph - N/A   Clear
9:45 AM 78.8 °F - 66.2 °F 65% 29.84 in 10.0 mi NNW 8.1 mph - N/A   Clear
10:05 AM 78.8 °F - 64.4 °F 61% 29.84 in 10.0 mi NNW 10.4 mph - N/A   Clear
10:25 AM 78.8 °F - 64.4 °F 61% 29.84 in 10.0 mi NNW 6.9 mph - N/A   Clear
10:45 AM 78.8 °F - 64.4 °F 61% 29.84 in 10.0 mi NNW 6.9 mph - N/A   Clear
11:05 AM 78.8 °F - 62.6 °F 57% 29.84 in 10.0 mi North 11.5 mph - N/A   Clear
11:25 AM 80.6 °F 81.5 °F 60.8 °F 51% 29.84 in 10.0 mi NNW 8.1 mph - N/A   Clear
11:45 AM 80.6 °F 81.5 °F 60.8 °F 51% 29.84 in 10.0 mi NNW 9.2 mph - N/A   Clear
12:05 PM 80.6 °F 81.1 °F 59.0 °F 48% 29.84 in 10.0 mi NNW 6.9 mph - N/A   Clear
12:25 PM 80.6 °F 81.1 °F 59.0 °F 48% 29.84 in 10.0 mi NNW 8.1 mph - N/A   Clear
12:45 PM 80.6 °F 81.1 °F 59.0 °F 48% 29.84 in 10.0 mi North 9.2 mph - N/A   Clear
1:05 PM 82.4 °F 81.7 °F 55.4 °F 39% 29.84 in 10.0 mi North 10.4 mph - N/A   Clear
1:25 PM 82.4 °F 81.7 °F 55.4 °F 39% 29.84 in 10.0 mi North 6.9 mph - N/A   Clear
1:45 PM 82.4 °F 81.7 °F 55.4 °F 39% 29.84 in 10.0 mi North 8.1 mph - N/A   Clear
2:06 PM 82.4 °F 81.7 °F 55.4 °F 39% 29.84 in 10.0 mi NNW 6.9 mph - N/A   Clear
2:26 PM 82.4 °F 81.7 °F 55.4 °F 39% 29.84 in 10.0 mi NNW 8.1 mph - N/A   Clear
2:46 PM 82.4 °F 81.7 °F 55.4 °F 39% 29.83 in 10.0 mi NW 10.4 mph - N/A   Clear
3:06 PM 82.4 °F 81.7 °F 55.4 °F 39% 29.83 in 10.0 mi WNW 10.4 mph - N/A   Clear
3:26 PM 84.2 °F 83.0 °F 55.4 °F 37% 29.82 in 10.0 mi WNW 9.2 mph - N/A   Clear
3:46 PM 84.2 °F 83.0 °F 55.4 °F 37% 29.82 in 10.0 mi NW 6.9 mph - N/A   Scattered Clouds
4:06 PM 82.4 °F 81.4 °F 53.6 °F 37% 29.82 in 10.0 mi NW 10.4 mph 16.1 mph N/A   Scattered Clouds
4:26 PM 82.4 °F 81.4 °F 53.6 °F 37% 29.82 in 10.0 mi NW 10.4 mph - N/A   Clear
4:46 PM 82.4 °F 81.4 °F 53.6 °F 37% 29.82 in 10.0 mi NW 10.4 mph - N/A   Clear
5:06 PM 82.4 °F 81.7 °F 55.4 °F 39% 29.82 in 10.0 mi WNW 8.1 mph 16.1 mph N/A   Clear
5:26 PM 82.4 °F 81.7 °F 55.4 °F 39% 29.83 in 10.0 mi NW 8.1 mph - N/A   Clear
5:46 PM 82.4 °F 81.4 °F 53.6 °F 37% 29.84 in 10.0 mi NW 6.9 mph - N/A   Clear
6:06 PM 82.4 °F 81.4 °F 53.6 °F 37% 29.84 in 10.0 mi NW 8.1 mph - N/A   Clear
6:26 PM 80.6 °F 80.5 °F 55.4 °F 42% 29.84 in 10.0 mi NW 6.9 mph - N/A   Clear
6:46 PM 80.6 °F 80.5 °F 55.4 °F 42% 29.84 in 10.0 mi WNW 5.8 mph - N/A   Clear
7:06 PM 80.6 °F 80.5 °F 55.4 °F 42% 29.85 in 10.0 mi WNW 9.2 mph - N/A   Clear
7:26 PM 80.6 °F 80.5 °F 55.4 °F 42% 29.86 in 10.0 mi WNW 9.2 mph - N/A   Clear
7:46 PM 78.8 °F - 55.4 °F 44% 29.86 in 10.0 mi NW 8.1 mph - N/A   Clear
8:06 PM 78.8 °F - 55.4 °F 44% 29.87 in 10.0 mi NW 9.2 mph - N/A   Clear
8:26 PM 78.8 °F - 57.2 °F 47% 29.87 in 10.0 mi NW 11.5 mph - N/A   Clear
8:46 PM 78.8 °F - 55.4 °F 44% 29.88 in 10.0 mi NW 11.5 mph - N/A   Clear
9:06 PM 77.0 °F - 55.4 °F 47% 29.89 in 10.0 mi WNW 10.4 mph - N/A   Clear
9:26 PM 77.0 °F - 55.4 °F 47% 29.90 in 10.0 mi WNW 10.4 mph - N/A   Clear
9:46 PM 77.0 °F - 53.6 °F 44% 29.92 in 10.0 mi NNW 11.5 mph 19.6 mph N/A   Clear
10:06 PM 75.2 °F - 53.6 °F 47% 29.92 in 10.0 mi North 15.0 mph 20.7 mph N/A   Clear
10:27 PM 73.4 °F - 55.4 °F 53% 29.93 in 10.0 mi North 12.7 mph 18.4 mph N/A   Clear
10:47 PM 73.4 °F - 55.4 °F 53% 29.94 in 10.0 mi North 13.8 mph 20.7 mph N/A   Clear
11:07 PM 71.6 °F - 55.4 °F 57% 29.94 in 10.0 mi North 12.7 mph 18.4 mph N/A   Clear
11:27 PM 71.6 °F - 53.6 °F 53% 29.94 in 10.0 mi NNW 11.5 mph 19.6 mph N/A   Clear
11:47 PM 71.6 °F - 53.6 °F 53% 29.95 in 10.0 mi NNW 13.8 mph 21.9 mph N/A   Clear